Flag for Jersey

Past Weather in Saint Helier, Jersey — Yesterday and Last 2 Weeks

Now
57 °F

Scattered clouds.


Feels Like: 53 °F
Forecast: 57 / 53 °F
Wind: 22 mph from Northwest

Location: Jersey Airport
Current Time: Sep 25, 2020 at 6:27:20 pm
Latest Report: Sep 25, 2020 at 5:50 pm
Visibility: N/A
Pressure29.89 "Hg
Humidity: 59%
Dew Point: 43 °F
Location of Saint HelierLocation

Past Weather in Saint Helier — Graph

°F

Saint Helier Temperature Yesterday

Maximum temperature yesterday: 59 °F (at 10:50 am)
Minimum temperature yesterday: 50 °F (at 8:20 pm)
Average temperature yesterday: 54 °F

High & Low Weather Summary for the Past Weeks

 TemperatureHumidityPressure
High88 °F (Sep 14, 2:50 pm)100% (Sep 11, 6:20 am)30.27 "Hg (Sep 11, 6:20 am)
Low50 °F (Sep 24, 8:20 pm)33% (Sep 14, 12:50 pm)29.36 "Hg (Sep 24, 9:50 pm)
Average63 °F80%29.98 "Hg
* Reported Sep 10 5:20 pm — Sep 25 5:20 pm, Saint Helier. Weather by CustomWeather, © 2020

Note: Actual official high and low records may vary slightly from our data, if they occured in-between our weather recording intervals... More about our weather records

Saint Helier Weather History for the Previous 24 Hours

Scroll right to see more
 ConditionsComfort  
Time TempWeatherWind HumidityBarometerVisibility
5:20 pm
Fri, Sep 25
59 °FScattered clouds.23 mph51%29.89 "HgN/A
4:50 pm59 °FScattered clouds.22 mph55%29.89 "HgN/A
4:20 pm59 °FScattered clouds.23 mph55%29.86 "HgN/A
3:50 pm59 °FScattered clouds.23 mph55%29.86 "HgN/A
3:20 pm59 °FScattered clouds.24 mph59%29.86 "HgN/A
2:50 pm59 °FScattered clouds.20 mph55%29.86 "HgN/A
1:50 pm59 °FScattered clouds.21 mph55%29.83 "HgN/A
1:20 pm59 °FScattered clouds.20 mph51%29.80 "HgN/A
12:50 pm57 °FScattered clouds.22 mph51%29.80 "HgN/A
12:20 pm57 °FScattered clouds.18 mph59%29.80 "HgN/A
11:50 am57 °FScattered clouds.20 mph55%29.77 "HgN/A
11:20 am55 °FScattered clouds.20 mph63%29.77 "HgN/A
10:50 am55 °FScattered clouds.18 mph67%29.77 "HgN/A
10:20 am55 °FScattered clouds.18 mph67%29.74 "HgN/A
9:50 am55 °FScattered clouds.20 mph67%29.71 "HgN/A
9:20 am54 °FScattered clouds.16 mph72%29.68 "HgN/A
8:50 am54 °FScattered clouds.16 mph77%29.65 "HgN/A
8:20 am50 °FRain showers. Scattered clouds.17 mph82%29.65 "HgN/A
7:50 am54 °FScattered showers. Scattered clouds.16 mph72%29.62 "HgN/A
7:20 am54 °FScattered clouds.16 mph67%29.59 "HgN/A
6:50 am54 °FPassing clouds.17 mph72%29.59 "HgN/A
6:20 am54 °FPassing clouds.16 mph72%29.56 "HgN/A
5:50 am54 °FPassing clouds.17 mph67%29.56 "HgN/A
5:20 am52 °FPassing clouds.17 mph72%29.56 "HgN/A
4:50 am52 °FPartly cloudy.17 mph77%29.53 "HgN/A
4:20 am52 °FPartly cloudy.18 mph77%29.50 "HgN/A
3:50 am52 °FSprinkles. Partly cloudy.21 mph77%29.50 "Hg6 mi
3:20 am54 °FPassing clouds.22 mph77%29.47 "HgN/A
2:50 am52 °FRain showers. Partly cloudy.20 mph82%29.45 "HgN/A
2:20 am52 °FPassing clouds.23 mph82%29.42 "HgN/A
1:50 am54 °FPartly cloudy.24 mph88%29.36 "Hg2 mi
1:20 am55 °FPartly cloudy.31 mph77%29.36 "HgN/A
12:50 am55 °FPartly cloudy.31 mph77%29.36 "HgN/A
12:20 am54 °FPartly cloudy.30 mph82%29.36 "HgN/A
11:50 pm
Thu, Sep 24
50 °FRain. Partly cloudy.25 mph82%29.36 "Hg2 mi
11:20 pm52 °FSprinkles. Passing clouds.26 mph82%29.36 "HgN/A
10:50 pm54 °FPartly cloudy.30 mph77%29.36 "HgN/A
10:20 pm54 °FPartly cloudy.35 mph82%29.36 "HgN/A
9:50 pm54 °FPartly cloudy.35 mph82%29.36 "HgN/A
9:20 pm50 °FPartly cloudy.28 mph94%29.39 "HgN/A
8:50 pm50 °FSprinkles. Partly cloudy.33 mph88%29.39 "HgN/A
8:20 pm50 °FSprinkles. Partly cloudy.32 mph88%29.39 "HgN/A
7:50 pm54 °FSprinkles. Partly cloudy.30 mph72%29.39 "HgN/A
6:50 pm54 °FScattered showers. Scattered clouds.30 mph67%29.42 "HgN/A
6:20 pm54 °FScattered showers. Scattered clouds.28 mph67%29.42 "HgN/A
Weather by CustomWeather, © 2020

See weather overview